Flag for Malta Weather past 2 weeks in Valletta, Malta

Now
77 °F

Passing clouds.


Feels Like: 79 °F
Forecast: 68 / 80 °F
Wind: 7 mph from Northwest

Location: Luqa

Current Time: Oct 21, 2014 at 12:19:47 PM

Latest Report: Oct 21, 2014 at 11:45 AM


Visibility: N/A

Pressure: 30.07 "Hg

Humidity: 61%

Dew point: 63 °F

Location of VallettaLocation

Historic Weather in Valletta — Graph

°F

Valletta temperature yesterday

Maximum temperature yesterday: 79 °F (at 11:45 AM)
Minimum temperature yesterday: 66 °F (at 7:45 AM)
Average temperature yesterday: 72 °F

Past Weeks' High & Low Weather Summary

 TemperatureHumidityPressure
High86 °F (Oct 18, 1:45 PM)100% (Oct 17, 12:45 AM)30.24 "Hg (Oct 17, 12:45 AM)
Low64 °F (Oct 8, 4:45 AM)40% (Oct 18, 2:45 PM)29.86 "Hg (Oct 15, 2:45 AM)
Average74 °F77%30.08 "Hg
* Reported Oct 6 11:15 AM — Oct 21 11:15 AM, Valletta, Weather by CustomWeather, © 2014

Note: Actual official high and low records may vary slightly from our data, if they occured in-between our weather recording intervals... More about our weather records

Advertising

Valletta weather history for previous 24 hours

 ConditionsComfort  
Time TempWeatherWind HumidityBarometerVisibility
11:15 AM
Oct 21
77 °FPassing clouds.7 mph65%30.07 "HgN/A
10:45 AM77 °FPartly sunny.9 mph65%30.07 "HgN/A
10:15 AM73 °FScattered clouds.3 mph78%30.07 "HgN/A
9:45 AM73 °FPassing clouds.6 mph78%30.07 "HgN/A
9:15 AM73 °FPartly sunny.6 mph78%30.07 "HgN/A
8:45 AM72 °FPassing clouds.5 mph83%30.04 "HgN/A
8:15 AM70 °FPassing clouds.5 mph83%30.04 "HgN/A
7:45 AM70 °FPassing clouds.6 mph83%30.04 "HgN/A
7:15 AM68 °FPassing clouds.6 mph88%30.04 "HgN/A
6:45 AM70 °FPassing clouds.3 mph83%30.04 "HgN/A
6:15 AM70 °FPassing clouds.2 mph83%30.04 "HgN/A
5:45 AM70 °FPassing clouds.3 mph83%30.04 "HgN/A
5:15 AM70 °FPassing clouds.7 mph83%30.04 "HgN/A
4:45 AM70 °FClear.3 mph83%30.07 "Hg10 mi
4:15 AM70 °FClear.5 mph83%30.07 "Hg10 mi
3:45 AM70 °FClear.5 mph83%30.07 "Hg10 mi
3:15 AM68 °FClear.5 mph88%30.09 "Hg10 mi
2:45 AM68 °FClear.2 mph88%30.09 "Hg10 mi
2:15 AM68 °FPassing clouds.3 mph88%30.09 "HgN/A
1:15 AM70 °FPassing clouds.3 mph83%30.09 "HgN/A
12:45 AM70 °FPassing clouds.2 mph83%30.12 "HgN/A
12:15 AM70 °FPassing clouds.2 mph83%30.12 "HgN/A
11:45 PM
Oct 20
70 °FPassing clouds.3 mph83%30.12 "HgN/A
11:15 PM70 °FPassing clouds.5 mph83%30.12 "HgN/A
10:45 PM70 °FPassing clouds.3 mph83%30.12 "HgN/A
10:15 PM70 °FPassing clouds.2 mph78%30.12 "HgN/A
9:45 PM70 °FPassing clouds.2 mph78%30.12 "HgN/A
9:15 PM70 °FPassing clouds.1 mph78%30.12 "HgN/A
8:45 PM70 °FPassing clouds.1 mph78%30.12 "HgN/A
8:15 PM70 °FPassing clouds.1 mph78%30.12 "HgN/A
7:45 PM72 °FPassing clouds.2 mph73%30.12 "HgN/A
7:15 PM72 °FPassing clouds.2 mph73%30.12 "HgN/A
6:45 PM72 °FPassing clouds.3 mph73%30.12 "HgN/A
6:15 PM73 °FPassing clouds.6 mph69%30.12 "HgN/A
5:45 PM75 °FPassing clouds.7 mph65%30.12 "HgN/A
5:15 PM75 °FPassing clouds.6 mph65%30.12 "HgN/A
4:45 PM77 °FPassing clouds.6 mph57%30.12 "HgN/A
4:15 PM75 °FScattered clouds.5 mph61%30.15 "HgN/A
3:45 PM75 °FScattered clouds.3 mph61%30.15 "HgN/A
3:15 PM77 °FScattered clouds.6 mph57%30.15 "HgN/A
2:45 PM75 °FScattered clouds.5 mph61%30.15 "HgN/A
2:15 PM77 °FScattered clouds.7 mph61%30.18 "HgN/A
1:45 PM77 °FScattered clouds.3 mph61%30.18 "HgN/A
1:15 PM75 °FScattered clouds.5 mph65%30.18 "HgN/A
12:45 PM77 °FPassing clouds.7 mph61%30.21 "HgN/A
12:15 PM79 °FPassing clouds.7 mph58%30.21 "HgN/A
Weather by CustomWeather, © 2014

See weather overviewHow to use our weather pages